| time (UTC) | temp F | wind direction | speed knots | gust knots | rain 1hr in | rain 24hr in | rain mn in | humidity % | barometer mb |
| 20260506221830 | 72 | 294 | 2.6 | 4.3 | 0.00 | 0.06 | 0.06 | 83 | 1011.3 |
| 20260506221327 | 73 | 205 | 0.0 | 7.0 | 0.00 | 0.06 | 0.06 | 83 | 1011.6 |
| 20260506220825 | 73 | 290 | 1.7 | 11.3 | 0.00 | 0.06 | 0.06 | 82 | 1011.4 |
| 20260506220320 | 72 | 273 | 2.6 | 5.2 | 0.00 | 0.06 | 0.06 | 81 | 1011.4 |
| 20260506215817 | 72 | 228 | 7.0 | 7.8 | 0.00 | 0.06 | 0.06 | 82 | 1011.3 |
| 20260506215313 | 72 | 265 | 3.5 | 7.0 | 0.00 | 0.06 | 0.06 | 81 | 1011.2 |
| 20260506214809 | 72 | 248 | 3.5 | 3.5 | 0.00 | 0.06 | 0.06 | 82 | 1011.4 |
| 20260506214306 | 72 | 253 | 1.7 | 7.0 | 0.00 | 0.06 | 0.06 | 82 | 1011.4 |
| 20260506213804 | 73 | 243 | 1.7 | 4.3 | 0.00 | 0.06 | 0.06 | 81 | 1011.1 |
| 20260506213301 | 73 | 243 | 2.6 | 6.1 | 0.00 | 0.06 | 0.06 | 81 | 1011.2 |
| 20260506212758 | 73 | 218 | 2.6 | 5.2 | 0.00 | 0.06 | 0.06 | 81 | 1011.3 |
| 20260506212254 | 73 | 234 | 2.6 | 3.5 | 0.00 | 0.06 | 0.06 | 82 | 1011.2 |
| 20260506211749 | 73 | 203 | 3.5 | 7.8 | 0.00 | 0.06 | 0.06 | 79 | 1011.5 |
| 20260506211246 | 73 | 227 | 1.7 | 9.6 | 0.00 | 0.06 | 0.06 | 79 | 1011.4 |
| 20260506210743 | 73 | 263 | 2.6 | 4.3 | 0.00 | 0.06 | 0.06 | 80 | 1011.5 |
| 20260506210240 | 73 | 237 | 5.2 | 8.7 | 0.00 | 0.06 | 0.06 | 80 | 1011.4 |
| 20260506205737 | 72 | 259 | 0.9 | 3.5 | 0.00 | 0.06 | 0.06 | 81 | 1011.4 |
| 20260506205232 | 71 | 167 | 4.3 | 5.2 | 0.00 | 0.06 | 0.06 | 83 | 1011.3 |
| 20260506204729 | 71 | 216 | 4.3 | 8.7 | 0.00 | 0.06 | 0.06 | 82 | 1011.3 |
| 20260506204227 | 71 | 270 | 2.6 | 6.1 | 0.00 | 0.06 | 0.06 | 83 | 1011.2 |
| 20260506203725 | 71 | 243 | 6.1 | 7.8 | 0.00 | 0.06 | 0.06 | 83 | 1011.0 |
| 20260506203221 | 71 | 226 | 1.7 | 4.3 | 0.00 | 0.06 | 0.06 | 85 | 1011.1 |
| 20260506202719 | 71 | 45 | 2.6 | 5.2 | 0.00 | 0.06 | 0.06 | 85 | 1011.2 |
| 20260506202215 | 71 | 283 | 2.6 | 7.0 | 0.00 | 0.06 | 0.06 | 84 | 1011.1 |
| 20260506201712 | 70 | 275 | 2.6 | 7.0 | 0.00 | 0.06 | 0.06 | 83 | 1010.9 |
| 20260506201208 | 70 | 242 | 2.6 | 12.2 | 0.00 | 0.06 | 0.06 | 84 | 1011.1 |
| 20260506200700 | 70 | 229 | 2.6 | 7.0 | 0.00 | 0.06 | 0.06 | 86 | 1010.8 |
| 20260506200157 | 69 | 60 | 2.6 | 2.6 | 0.00 | 0.06 | 0.06 | 87 | 1011.1 |
| 20260506195653 | 69 | 306 | 1.7 | 7.0 | 0.00 | 0.06 | 0.06 | 85 | 1010.8 |
| 20260506195150 | 69 | 166 | 2.6 | 5.2 | 0.00 | 0.06 | 0.06 | 86 | 1011.0 |
| 20260506194647 | 69 | 236 | 1.7 | 6.1 | 0.00 | 0.06 | 0.06 | 86 | 1010.5 |
| 20260506194143 | 69 | 265 | 2.6 | 6.1 | 0.00 | 0.06 | 0.06 | 87 | 1010.5 |
| 20260506193641 | 69 | 210 | 2.6 | 7.8 | 0.00 | 0.06 | 0.06 | 86 | 1010.9 |
| 20260506193138 | 69 | 231 | 4.3 | 10.4 | 0.00 | 0.06 | 0.06 | 85 | 1011.2 |
| 20260506192635 | 69 | 233 | 2.6 | 9.6 | 0.00 | 0.06 | 0.06 | 85 | 1011.5 |
| 20260506192131 | 69 | 285 | 11.3 | 11.3 | 0.00 | 0.06 | 0.06 | 85 | 1011.6 |
| 20260506191628 | 69 | 297 | 0.0 | 3.5 | 0.00 | 0.06 | 0.06 | 87 | 1011.8 |
| 20260506191124 | 69 | 235 | 6.1 | 9.6 | 0.00 | 0.06 | 0.06 | 84 | 1012.2 |
| 20260506190621 | 69 | 261 | 1.7 | 9.6 | 0.00 | 0.06 | 0.06 | 84 | 1012.3 |
| 20260506190118 | 69 | 261 | 3.5 | 5.2 | 0.00 | 0.06 | 0.06 | 84 | 1012.5 |
| 20260506185615 | 69 | 218 | 3.5 | 11.3 | 0.00 | 0.06 | 0.06 | 85 | 1012.6 |
| 20260506185111 | 69 | 230 | 2.6 | 5.2 | 0.00 | 0.06 | 0.06 | 85 | 1013.1 |
| 20260506184609 | 69 | 250 | 3.5 | 6.1 | 0.00 | 0.06 | 0.06 | 85 | 1012.9 |
| 20260506184106 | 69 | 286 | 4.3 | 8.7 | 0.00 | 0.06 | 0.06 | 86 | 1013.0 |
| 20260506183603 | 69 | 279 | 0.9 | 5.2 | 0.00 | 0.06 | 0.06 | 87 | 1013.2 |
| 20260506183058 | 68 | 253 | 1.7 | 8.7 | 0.00 | 0.06 | 0.06 | 87 | 1013.1 |
| 20260506182556 | 69 | 278 | 2.6 | 6.1 | 0.00 | 0.06 | 0.06 | 87 | 1013.2 |
| 20260506182053 | 69 | 214 | 2.6 | 3.5 | 0.00 | 0.06 | 0.06 | 86 | 1013.7 |
| 20260506181551 | 68 | 278 | 3.5 | 4.3 | 0.00 | 0.06 | 0.06 | 88 | 1013.5 |
| 20260506181047 | 68 | 262 | 3.5 | 8.7 | 0.00 | 0.06 | 0.06 | 87 | 1013.7 |
| 20260506180544 | 68 | 257 | 1.7 | 5.2 | 0.00 | 0.06 | 0.06 | 89 | 1013.7 |
| 20260506180041 | 68 | 220 | 0.0 | 4.3 | 0.00 | 0.06 | 0.06 | 89 | 1013.8 |
| 20260506175537 | 68 | 280 | 6.1 | 7.8 | 0.00 | 0.06 | 0.06 | 87 | 1014.0 |
| 20260506175033 | 69 | 260 | 2.6 | 10.4 | 0.00 | 0.06 | 0.06 | 87 | 1014.0 |
| 20260506174533 | 68 | 282 | 2.6 | 9.6 | 0.00 | 0.06 | 0.06 | 87 | 1013.8 |
| 20260506174028 | 69 | 296 | 3.5 | 4.3 | 0.00 | 0.06 | 0.06 | 88 | 1014.1 |
| 20260506173526 | 68 | 306 | 1.7 | 8.7 | 0.00 | 0.06 | 0.06 | 87 | 1013.7 |
| 20260506173023 | 68 | 2 | 1.7 | 6.1 | 0.00 | 0.06 | 0.06 | 88 | 1013.6 |
| 20260506172520 | 67 | 271 | 3.5 | 6.1 | 0.00 | 0.06 | 0.06 | 89 | 1013.6 |
| 20260506172016 | 67 | 277 | 2.6 | 11.3 | 0.00 | 0.06 | 0.06 | 88 | 1013.8 |
| 20260506171514 | 67 | 267 | 3.5 | 8.7 | 0.00 | 0.06 | 0.06 | 87 | 1013.7 |
| 20260506171010 | 66 | 309 | 2.6 | 7.0 | 0.00 | 0.06 | 0.06 | 88 | 1013.5 |
| 20260506170508 | 67 | 246 | 2.6 | 7.0 | 0.00 | 0.06 | 0.06 | 89 | 1013.6 |
| 20260506170000 | 67 | 296 | 1.7 | 4.3 | 0.00 | 0.06 | 0.06 | 92 | 1013.7 |
| 20260506165459 | 67 | 235 | 0.0 | 3.5 | 0.00 | 0.06 | 0.06 | 93 | 1013.6 |
| 20260506164954 | 66 | 281 | 0.0 | 4.3 | 0.00 | 0.06 | 0.06 | 95 | 1013.7 |
| 20260506164451 | 65 | 179 | 1.7 | 6.1 | 0.00 | 0.06 | 0.06 | 94 | 1013.8 |
| 20260506163949 | 65 | 216 | 2.6 | 7.0 | 0.00 | 0.06 | 0.06 | 95 | 1013.9 |
| 20260506163444 | 64 | 210 | 3.5 | 7.0 | 0.00 | 0.06 | 0.06 | 95 | 1013.8 |
| 20260506162938 | 64 | 184 | 0.0 | 7.0 | 0.00 | 0.06 | 0.06 | 97 | 1013.8 |
| 20260506162436 | 64 | 246 | 1.7 | 6.1 | 0.00 | 0.06 | 0.06 | 97 | 1013.8 |
| 20260506161934 | 64 | 228 | 2.6 | 2.6 | 0.07 | 0.06 | 0.06 | 97 | 1013.9 |
| 20260506161431 | 63 | 274 | 0.9 | 3.5 | 0.09 | 0.06 | 0.06 | 96 | 1014.0 |
| 20260506160923 | 63 | 176 | 1.7 | 2.6 | 0.07 | 0.05 | 0.05 | 96 | 1014.3 |
| 20260506160420 | 63 | 212 | 0.9 | 4.3 | 0.12 | 0.05 | 0.05 | 96 | 1014.5 |
| 20260506155918 | 64 | 293 | 1.7 | 2.6 | 0.09 | 0.04 | 0.04 | 94 | 1014.3 |
| 20260506155415 | 64 | 256 | 0.0 | 2.6 | 0.05 | 0.03 | 0.03 | 93 | 1014.1 |
| 20260506153537 | 65 | 263 | 1.7 | 4.3 | 0.05 | 0.01 | 0.01 | 89 | 1014.7 |
| 20260506153034 | 65 | 235 | 0.0 | 4.3 | 0.02 | 0.00 | 0.00 | 87 | 1014.9 |
| 20260506152531 | 65 | 267 | 2.6 | 3.5 | 0.00 | 0.00 | 0.00 | 84 | 1014.7 |
| 20260506152029 | 66 | 235 | 2.6 | 5.2 | 0.00 | 0.00 | 0.00 | 82 | 1014.5 |
| 20260506151527 | 66 | 221 | 3.5 | 3.5 | 0.00 | 0.00 | 0.00 | 81 | 1014.3 |
| 20260506151024 | 66 | 218 | 1.7 | 4.3 | 0.00 | 0.00 | 0.00 | 80 | 1014.6 |
| 20260506150520 | 66 | 234 | 0.0 | 3.5 | 0.00 | 0.00 | 0.00 | 80 | 1014.6 |
| 20260506150017 | 66 | 207 | 1.7 | 3.5 | 0.00 | 0.00 | 0.00 | 79 | 1014.6 |
| 20260506145514 | 66 | 307 | 3.5 | 9.6 | 0.00 | 0.00 | 0.00 | 79 | 1014.5 |
| 20260506145011 | 66 | 248 | 4.3 | 8.7 | 0.00 | 0.00 | 0.00 | 78 | 1014.2 |
| 20260506144508 | 66 | 237 | 1.7 | 6.1 | 0.00 | 0.00 | 0.00 | 77 | 1014.1 |
| 20260506144005 | 67 | 249 | 0.0 | 7.8 | 0.00 | 0.00 | 0.00 | 77 | 1014.1 |
| 20260506143503 | 67 | 241 | 3.5 | 11.3 | 0.00 | 0.00 | 0.00 | 75 | 1014.2 |
| 20260506143001 | 68 | 266 | 2.6 | 10.4 | 0.00 | 0.00 | 0.00 | 73 | 1013.9 |
| 20260506142458 | 68 | 281 | 2.6 | 7.8 | 0.00 | 0.00 | 0.00 | 72 | 1014.0 |
| 20260506141956 | 68 | 233 | 2.6 | 9.6 | 0.00 | 0.00 | 0.00 | 73 | 1014.1 |
| 20260506141454 | 68 | 294 | 3.5 | 7.0 | 0.00 | 0.00 | 0.00 | 73 | 1014.0 |
| 20260506140952 | 68 | 256 | 3.5 | 10.4 | 0.00 | 0.00 | 0.00 | 73 | 1014.0 |
| 20260506140449 | 68 | 241 | 2.6 | 9.6 | 0.00 | 0.00 | 0.00 | 72 | 1014.0 |
| 20260506135946 | 67 | 273 | 5.2 | 8.7 | 0.00 | 0.00 | 0.00 | 73 | 1013.8 |
| 20260506135443 | 67 | 296 | 3.5 | 9.6 | 0.00 | 0.00 | 0.00 | 75 | 1013.9 |
| 20260506134939 | 67 | 259 | 3.5 | 16.5 | 0.00 | 0.00 | 0.00 | 74 | 1013.9 |
| 20260506134435 | 66 | 316 | 0.9 | 13.9 | 0.00 | 0.00 | 0.00 | 76 | 1013.9 |
| 20260506133932 | 66 | 219 | 2.6 | 9.6 | 0.00 | 0.00 | 0.00 | 76 | 1014.0 |
| 20260506133429 | 66 | 303 | 3.5 | 11.3 | 0.00 | 0.00 | 0.00 | 75 | 1014.0 |
| 20260506132926 | 66 | 265 | 4.3 | 13.9 | 0.00 | 0.00 | 0.00 | 76 | 1014.3 |
| 20260506132423 | 66 | 237 | 5.2 | 13.9 | 0.00 | 0.00 | 0.00 | 77 | 1014.0 |
| 20260506131921 | 65 | 235 | 2.6 | 5.2 | 0.00 | 0.00 | 0.00 | 78 | 1014.0 |
| 20260506131417 | 65 | 282 | 2.6 | 7.0 | 0.00 | 0.00 | 0.00 | 79 | 1014.3 |
| 20260506130914 | 65 | 232 | 2.6 | 7.0 | 0.00 | 0.00 | 0.00 | 79 | 1014.1 |
| 20260506130410 | 65 | 277 | 3.5 | 9.6 | 0.00 | 0.00 | 0.00 | 79 | 1014.0 |
| 20260506125909 | 66 | 255 | 3.5 | 16.5 | 0.00 | 0.00 | 0.00 | 76 | 1014.0 |
| 20260506125407 | 66 | 251 | 3.5 | 11.3 | 0.00 | 0.00 | 0.00 | 76 | 1013.9 |
| 20260506124904 | 65 | 282 | 2.6 | 8.7 | 0.00 | 0.00 | 0.00 | 76 | 1013.5 |
| 20260506124401 | 65 | 233 | 2.6 | 6.1 | 0.00 | 0.00 | 0.00 | 77 | 1013.9 |
| 20260506123859 | 65 | 221 | 2.6 | 6.1 | 0.00 | 0.00 | 0.00 | 77 | 1013.9 |
| 20260506123357 | 65 | 248 | 2.6 | 4.3 | 0.00 | 0.00 | 0.00 | 77 | 1013.9 |
| 20260506122854 | 65 | 261 | 0.0 | 7.8 | 0.00 | 0.00 | 0.00 | 78 | 1013.7 |
| 20260506122351 | 65 | 290 | 2.6 | 11.3 | 0.00 | 0.00 | 0.00 | 78 | 1013.6 |
| 20260506121849 | 65 | 222 | 2.6 | 11.3 | 0.00 | 0.00 | 0.00 | 78 | 1013.3 |
| 20260506121346 | 65 | 231 | 5.2 | 8.7 | 0.00 | 0.00 | 0.00 | 78 | 1013.5 |
| 20260506120843 | 65 | 221 | 1.7 | 3.5 | 0.00 | 0.00 | 0.00 | 78 | 1013.4 |
| 20260506120340 | 65 | 250 | 2.6 | 6.1 | 0.00 | 0.00 | 0.00 | 77 | 1013.2 |
| 20260506115838 | 65 | 262 | 2.6 | 5.2 | 0.00 | 0.00 | 0.00 | 78 | 1013.2 |
| 20260506115336 | 65 | 199 | 6.1 | 7.8 | 0.00 | 0.00 | 0.00 | 78 | 1013.4 |
| 20260506114834 | 64 | 227 | 1.7 | 4.3 | 0.00 | 0.00 | 0.00 | 78 | 1013.5 |
| 20260506114331 | 64 | 240 | 4.3 | 10.4 | 0.00 | 0.00 | 0.00 | 78 | 1013.5 |
| 20260506113830 | 64 | 208 | 2.6 | 10.4 | 0.00 | 0.00 | 0.00 | 78 | 1013.4 |
| 20260506113327 | 64 | 227 | 5.2 | 8.7 | 0.00 | 0.00 | 0.00 | 78 | 1013.6 |
| 20260506112823 | 64 | 269 | 2.6 | 5.2 | 0.00 | 0.00 | 0.00 | 78 | 1013.4 |
| 20260506112320 | 64 | 228 | 2.6 | 11.3 | 0.00 | 0.00 | 0.00 | 78 | 1013.3 |
| 20260506111818 | 64 | 241 | 1.7 | 6.1 | 0.00 | 0.00 | 0.00 | 78 | 1013.3 |
| 20260506111316 | 64 | 261 | 1.7 | 6.1 | 0.00 | 0.00 | 0.00 | 78 | 1013.5 |
| 20260506110813 | 64 | 283 | 1.7 | 8.7 | 0.00 | 0.00 | 0.00 | 78 | 1013.3 |
| 20260506110310 | 64 | 215 | 2.6 | 4.3 | 0.00 | 0.00 | 0.00 | 78 | 1013.3 |
| 20260506105806 | 64 | 271 | 4.3 | 5.2 | 0.00 | 0.00 | 0.00 | 78 | 1013.2 |
| 20260506105305 | 64 | 274 | 2.6 | 4.3 | 0.00 | 0.00 | 0.00 | 79 | 1013.3 |
| 20260506104801 | 64 | 217 | 2.6 | 6.1 | 0.00 | 0.00 | 0.00 | 79 | 1013.2 |
| 20260506104259 | 64 | 247 | 2.6 | 7.0 | 0.00 | 0.00 | 0.00 | 79 | 1013.3 |
| 20260506103756 | 64 | 242 | 2.6 | 10.4 | 0.00 | 0.00 | 0.00 | 79 | 1013.4 |
| 20260506103253 | 64 | 227 | 1.7 | 5.2 | 0.00 | 0.00 | 0.00 | 79 | 1013.3 |
| 20260506102751 | 64 | 235 | 1.7 | 10.4 | 0.00 | 0.00 | 0.00 | 79 | 1013.3 |
| 20260506102248 | 64 | 162 | 3.5 | 11.3 | 0.00 | 0.00 | 0.00 | 79 | 1013.4 |
| 20260506101745 | 64 | 257 | 5.2 | 5.2 | 0.00 | 0.00 | 0.00 | 79 | 1013.3 |
| 20260506101242 | 64 | 231 | 3.5 | 8.7 | 0.00 | 0.00 | 0.00 | 79 | 1013.2 |
| 20260506100740 | 64 | 240 | 3.5 | 6.1 | 0.00 | 0.00 | 0.00 | 79 | 1013.4 |
| 20260506100237 | 64 | 243 | 2.6 | 7.0 | 0.00 | 0.00 | 0.00 | 79 | 1013.2 |
| 20260506095736 | 64 | 201 | 6.1 | 11.3 | 0.00 | 0.00 | 0.00 | 79 | 1013.1 |
| 20260506095232 | 64 | 245 | 1.7 | 4.3 | 0.00 | 0.00 | 0.00 | 79 | 1013.5 |
| 20260506094729 | 64 | 274 | 2.6 | 7.0 | 0.00 | 0.00 | 0.00 | 79 | 1013.5 |
| 20260506094227 | 64 | 287 | 0.9 | 4.3 | 0.00 | 0.00 | 0.00 | 79 | 1013.2 |
| 20260506093726 | 64 | 277 | 3.5 | 10.4 | 0.00 | 0.00 | 0.00 | 79 | 1013.1 |
| 20260506093222 | 64 | 268 | 3.5 | 7.8 | 0.00 | 0.00 | 0.00 | 79 | 1013.3 |
| 20260506092720 | 64 | 212 | 3.5 | 11.3 | 0.00 | 0.00 | 0.00 | 79 | 1013.2 |
| 20260506092218 | 64 | 227 | 5.2 | 9.6 | 0.00 | 0.00 | 0.00 | 79 | 1013.2 |
| 20260506091715 | 64 | 227 | 2.6 | 5.2 | 0.00 | 0.00 | 0.00 | 79 | 1013.3 |
| 20260506091212 | 64 | 245 | 4.3 | 7.8 | 0.00 | 0.00 | 0.00 | 79 | 1013.3 |
| 20260506090710 | 64 | 253 | 4.3 | 8.7 | 0.00 | 0.00 | 0.00 | 79 | 1013.5 |
| 20260506090207 | 64 | 309 | 7.0 | 8.7 | 0.00 | 0.00 | 0.00 | 79 | 1013.8 |
| 20260506085704 | 64 | 217 | 2.6 | 10.4 | 0.00 | 0.00 | 0.00 | 79 | 1013.5 |
| 20260506085200 | 64 | 212 | 3.5 | 5.2 | 0.00 | 0.00 | 0.00 | 79 | 1013.7 |
| 20260506084656 | 64 | 236 | 1.7 | 6.1 | 0.00 | 0.00 | 0.00 | 79 | 1013.7 |
| 20260506084153 | 64 | 244 | 2.6 | 7.0 | 0.00 | 0.00 | 0.00 | 79 | 1013.5 |
| 20260506083650 | 64 | 203 | 1.7 | 5.2 | 0.00 | 0.00 | 0.00 | 79 | 1013.8 |
| 20260506083148 | 64 | 264 | 2.6 | 7.8 | 0.00 | 0.00 | 0.00 | 79 | 1013.6 |
| 20260506082644 | 64 | 250 | 3.5 | 14.8 | 0.00 | 0.00 | 0.00 | 79 | 1013.5 |
| 20260506082139 | 64 | 273 | 2.6 | 11.3 | 0.00 | 0.00 | 0.00 | 79 | 1013.5 |
| 20260506081638 | 64 | 248 | 5.2 | 10.4 | 0.00 | 0.00 | 0.00 | 79 | 1013.8 |
| 20260506081135 | 64 | 214 | 4.3 | 5.2 | 0.00 | 0.00 | 0.00 | 79 | 1013.5 |
| 20260506080633 | 64 | 257 | 2.6 | 7.0 | 0.00 | 0.00 | 0.00 | 80 | 1013.6 |
| 20260506080129 | 64 | 283 | 2.6 | 6.1 | 0.00 | 0.00 | 0.00 | 80 | 1013.7 |
| 20260506073113 | 64 | 236 | 2.6 | 10.4 | 0.00 | 0.00 | 0.00 | 79 | 1013.7 |
| 20260506072610 | 65 | 238 | 2.6 | 6.1 | 0.00 | 0.00 | 0.00 | 79 | 1013.8 |
| 20260506072108 | 64 | 241 | 5.2 | 12.2 | 0.00 | 0.00 | 0.00 | 79 | 1013.8 |
| 20260506071605 | 65 | 200 | 2.6 | 6.1 | 0.00 | 0.00 | 0.00 | 79 | 1014.0 |
| 20260506071102 | 65 | 300 | 2.6 | 8.7 | 0.00 | 0.00 | 0.00 | 79 | 1013.8 |
| 20260506070559 | 65 | 227 | 6.1 | 6.1 | 0.00 | 0.00 | 0.00 | 79 | 1014.0 |
| 20260506062034 | 65 | 232 | 5.2 | 16.5 | 0.00 | 0.00 | 0.00 | 78 | 1014.3 |
| 20260506061529 | 66 | 264 | 3.5 | 12.2 | 0.00 | 0.00 | 0.00 | 78 | 1014.5 |
| 20260506061027 | 66 | 258 | 4.3 | 12.2 | 0.00 | 0.00 | 0.00 | 78 | 1014.3 |
| 20260506060526 | 66 | 228 | 1.7 | 9.6 | 0.00 | 0.00 | 0.00 | 78 | 1014.6 |
| 20260506050954 | 67 | 247 | 2.6 | 11.3 | 0.00 | 0.00 | 0.00 | 74 | 1014.9 |
| 20260506050452 | 67 | 214 | 3.5 | 8.7 | 0.00 | 0.00 | 0.00 | 73 | 1014.7 |
| 20260506044942 | 67 | 295 | 2.6 | 6.1 | 0.00 | 0.00 | 0.00 | 72 | 1014.8 |
| 20260506044441 | 68 | 289 | 3.5 | 9.6 | 0.00 | 0.00 | 0.00 | 71 | 1014.9 |
| 20260506043937 | 68 | 188 | 2.6 | 5.2 | 0.00 | 0.00 | 0.00 | 71 | 1014.8 |
| 20260506043434 | 68 | 235 | 4.3 | 11.3 | 0.00 | 0.00 | 0.00 | 70 | 1014.5 |
| 20260506042932 | 68 | 241 | 5.2 | 10.4 | 0.00 | 0.00 | 0.00 | 70 | 1014.3 |
| 20260506042432 | 68 | 239 | 4.3 | 16.5 | 0.00 | 0.00 | 0.00 | 69 | 1014.5 |
| 20260506041929 | 68 | 228 | 7.8 | 13.0 | 0.00 | 0.00 | 0.00 | 69 | 1014.5 |
| 20260506041427 | 68 | 217 | 2.6 | 5.2 | 0.00 | 0.00 | 0.00 | 69 | 1014.8 |
| 20260506040924 | 69 | 297 | 2.6 | 13.0 | 0.00 | 0.00 | 0.00 | 68 | 1014.7 |
| 20260506040421 | 69 | 238 | 7.8 | 10.4 | 0.00 | 0.00 | 0.00 | 68 | 1014.9 |
| 20260506035917 | 69 | 302 | 1.7 | 5.2 | 0.00 | 0.00 | 0.00 | 68 | 1014.7 |
| 20260506035415 | 69 | 234 | 5.2 | 9.6 | 0.00 | 0.00 | 0.00 | 67 | 1014.6 |
| 20260506034911 | 69 | 278 | 5.2 | 10.4 | 0.00 | 0.00 | 0.00 | 67 | 1014.8 |
| 20260506034409 | 69 | 228 | 3.5 | 7.0 | 0.00 | 0.00 | 0.00 | 66 | 1014.8 |
| 20260506033905 | 70 | 328 | 2.6 | 7.0 | 0.00 | 0.00 | 0.00 | 66 | 1014.7 |
| 20260506033403 | 70 | 240 | 3.5 | 8.7 | 0.00 | 0.00 | 0.00 | 65 | 1014.8 |
| 20260506032859 | 70 | 238 | 4.3 | 8.7 | 0.00 | 0.00 | 0.00 | 65 | 1014.7 |
| 20260506032356 | 70 | 279 | 1.7 | 8.7 | 0.00 | 0.00 | 0.00 | 64 | 1014.9 |
| 20260506031853 | 70 | 235 | 2.6 | 6.1 | 0.00 | 0.00 | 0.00 | 64 | 1014.7 |
| 20260506031350 | 70 | 125 | 1.7 | 8.7 | 0.00 | 0.00 | 0.00 | 64 | 1014.7 |
| 20260506030848 | 71 | 242 | 3.5 | 18.2 | 0.00 | 0.00 | 0.00 | 63 | 1014.8 |
| 20260506030346 | 71 | 220 | 6.1 | 13.0 | 0.00 | 0.00 | 0.00 | 63 | 1014.6 |
| 20260506025843 | 71 | 68 | 3.5 | 10.4 | 0.00 | 0.00 | 0.00 | 63 | 1014.6 |
| 20260506025339 | 71 | 292 | 2.6 | 10.4 | 0.00 | 0.00 | 0.00 | 62 | 1014.6 |
| 20260506024836 | 71 | 306 | 2.6 | 5.2 | 0.00 | 0.00 | 0.00 | 62 | 1014.8 |
| 20260506024333 | 71 | 231 | 1.7 | 4.3 | 0.00 | 0.00 | 0.00 | 62 | 1014.6 |
| 20260506023829 | 71 | 216 | 1.7 | 7.0 | 0.00 | 0.00 | 0.00 | 61 | 1014.6 |
| 20260506023326 | 71 | 223 | 3.5 | 10.4 | 0.00 | 0.00 | 0.00 | 61 | 1014.7 |
| 20260506022823 | 71 | 296 | 1.7 | 6.1 | 0.00 | 0.00 | 0.00 | 61 | 1014.5 |
| 20260506022320 | 71 | 258 | 4.3 | 8.7 | 0.00 | 0.00 | 0.00 | 61 | 1014.6 |
| 20260506021819 | 71 | 264 | 4.3 | 10.4 | 0.00 | 0.00 | 0.00 | 60 | 1014.6 |
| 20260506021315 | 71 | 288 | 3.5 | 5.2 | 0.00 | 0.00 | 0.00 | 60 | 1014.5 |
| 20260506020812 | 72 | 244 | 1.7 | 3.5 | 0.00 | 0.00 | 0.00 | 60 | 1014.5 |
| 20260506020310 | 72 | 235 | 3.5 | 4.3 | 0.00 | 0.00 | 0.00 | 59 | 1014.5 |
| 20260506015807 | 72 | 290 | 1.7 | 4.3 | 0.00 | 0.00 | 0.00 | 59 | 1014.1 |
| 20260506015306 | 72 | 242 | 2.6 | 6.1 | 0.00 | 0.00 | 0.00 | 59 | 1014.2 |
| 20260506014801 | 72 | 240 | 0.9 | 7.8 | 0.00 | 0.00 | 0.00 | 58 | 1014.0 |
| 20260506014258 | 72 | 253 | 3.5 | 7.0 | 0.00 | 0.00 | 0.00 | 58 | 1014.2 |
| 20260506013755 | 72 | 231 | 2.6 | 7.8 | 0.00 | 0.00 | 0.00 | 57 | 1013.9 |
| 20260506013252 | 72 | 299 | 1.7 | 7.8 | 0.00 | 0.00 | 0.00 | 57 | 1013.9 |
| 20260506012748 | 72 | 304 | 1.7 | 4.3 | 0.00 | 0.00 | 0.00 | 57 | 1014.1 |
| 20260506012245 | 72 | 227 | 2.6 | 3.5 | 0.00 | 0.00 | 0.00 | 57 | 1014.0 |
| 20260506011743 | 72 | 240 | 2.6 | 4.3 | 0.00 | 0.00 | 0.00 | 56 | 1014.0 |
| 20260506011239 | 72 | 237 | 2.6 | 3.5 | 0.00 | 0.00 | 0.00 | 56 | 1013.9 |
| 20260506010737 | 72 | 206 | 3.5 | 7.8 | 0.00 | 0.00 | 0.00 | 56 | 1013.6 |
| 20260506010234 | 73 | 226 | 1.7 | 3.5 | 0.00 | 0.00 | 0.00 | 55 | 1013.8 |
| 20260506005731 | 73 | 255 | 1.7 | 4.3 | 0.00 | 0.00 | 0.00 | 55 | 1013.7 |
| 20260506005228 | 73 | 253 | 0.0 | 5.2 | 0.00 | 0.00 | 0.00 | 54 | 1013.4 |
| 20260506004724 | 73 | 277 | 3.5 | 4.3 | 0.00 | 0.00 | 0.00 | 54 | 1013.4 |
| 20260506004222 | 73 | 218 | 0.0 | 4.3 | 0.00 | 0.00 | 0.00 | 53 | 1013.7 |
| 20260506003717 | 74 | 212 | 3.5 | 5.2 | 0.00 | 0.00 | 0.00 | 53 | 1013.6 |
| 20260506003214 | 74 | 248 | 2.6 | 7.0 | 0.00 | 0.00 | 0.00 | 52 | 1013.5 |
| 20260506002710 | 74 | 280 | 1.7 | 4.3 | 0.00 | 0.00 | 0.00 | 52 | 1013.7 |
| 20260506002206 | 74 | 258 | 0.0 | 2.6 | 0.00 | 0.00 | 0.00 | 52 | 1013.3 |
| 20260506001702 | 74 | 237 | 1.7 | 2.6 | 0.00 | 0.00 | 0.00 | 52 | 1013.3 |
| 20260506001200 | 74 | 239 | 2.6 | 4.3 | 0.00 | 0.00 | 0.00 | 52 | 1013.3 |
| 20260506000657 | 74 | 211 | 1.7 | 3.5 | 0.00 | 0.00 | 0.00 | 51 | 1013.3 |
| 20260506000154 | 75 | 216 | 0.0 | 7.0 | 0.00 | 0.00 | 0.00 | 51 | 1013.2 |
| 20260505235652 | 75 | 241 | 0.9 | 4.3 | 0.00 | 0.00 | 0.00 | 50 | 1013.2 |
| 20260505235149 | 75 | 265 | 1.7 | 5.2 | 0.00 | 0.00 | 0.00 | 50 | 1013.2 |
| 20260505234646 | 76 | 180 | 0.0 | 2.6 | 0.00 | 0.00 | 0.00 | 49 | 1013.3 |
| 20260505234143 | 76 | 175 | 1.7 | 7.0 | 0.00 | 0.00 | 0.00 | 49 | 1013.1 |
| 20260505233640 | 76 | 264 | 1.7 | 5.2 | 0.00 | 0.00 | 0.00 | 48 | 1013.1 |
| 20260505233137 | 77 | 220 | 2.6 | 8.7 | 0.00 | 0.00 | 0.00 | 48 | 1013.3 |
| 20260505232635 | 77 | 268 | 2.6 | 5.2 | 0.00 | 0.00 | 0.00 | 47 | 1013.4 |
| 20260505232132 | 77 | 224 | 6.1 | 10.4 | 0.00 | 0.00 | 0.00 | 47 | 1013.2 |
| 20260505231629 | 77 | 244 | 3.5 | 7.8 | 0.00 | 0.00 | 0.00 | 47 | 1013.1 |
| 20260505231128 | 77 | 265 | 3.5 | 3.5 | 0.00 | 0.00 | 0.00 | 47 | 1013.2 |
| 20260505230626 | 78 | 267 | 1.7 | 5.2 | 0.00 | 0.00 | 0.00 | 46 | 1013.1 |
| 20260505230121 | 78 | 194 | 0.9 | 10.4 | 0.00 | 0.00 | 0.00 | 45 | 1013.0 |
| 20260505225618 | 78 | 199 | 5.2 | 8.7 | 0.00 | 0.00 | 0.00 | 45 | 1013.1 |
| 20260505225114 | 78 | 264 | 4.3 | 6.1 | 0.00 | 0.00 | 0.00 | 44 | 1013.2 |
| 20260505224611 | 78 | 273 | 2.6 | 6.1 | 0.00 | 0.00 | 0.00 | 44 | 1013.4 |
| 20260505224108 | 78 | 292 | 2.6 | 14.8 | 0.00 | 0.00 | 0.00 | 43 | 1013.3 |
| 20260505223605 | 79 | 270 | 4.3 | 9.6 | 0.00 | 0.00 | 0.00 | 44 | 1013.2 |
| 20260505223101 | 79 | 229 | 1.7 | 7.8 | 0.00 | 0.00 | 0.00 | 44 | 1013.4 |
| 20260505222558 | 79 | 15 | 1.7 | 13.9 | 0.00 | 0.00 | 0.00 | 44 | 1013.2 |